STARLINK-34343, 64157

Orbit data source: Space-Track

STARLINK-34343, 64157 is a payload satellite owned by SpaceX/Seattle (US) in SSO that was launched on Tue, 27 May 2025 UTC via an FALCON 9 launch vehicle from the Air Force Western Test Range (AFWTR).

On March 29, 2026, Starlink satellite 34343 (NORAD 64157) experienced an on-orbit anomaly and a fragmentation event, resulting in a loss of communication at ~560 km altitude. LeoLabs detected tens of objects near the satellite. SpaceX states there is no risk to the International Space Station or NASA's Artemis II mission.

Loading next visibility...
Identifier
64157, 2025-112M
Orbit
SSO
Country
Flag of USUS
Related business
Manufacturer
SpaceX/Seattle
Mission
Partially operational Commercial Communications
Bus & Motor
STARLINK V2MO, Unknown motor
Mass
575 kg wet, ~530 kg dry
Launch date (UTC)
2025-05-27 (1 year ago)
Launch vehicle
FALCON 9
Launch site
Air Force Western Test Range (AFWTR)
Object type
Payload
Rocket body
Debris
Shape & HBR
Box + 2 Pan, 17.7 m
Radar Cross Section
36.964 m², Large (>1 m²)

Expand to show TLE details & history
Last TLE update: 14 hours ago

TLE from 14 hours ago
0 STARLINK-34343
1 64157U 25112M   26145.13306397  .00016924  00000-0  12428-2 0  9995
2 64157  97.6128 196.7014 0014447   0.4985 359.6252 15.03440545 54790
Epoch: 2026-05-25T03:11Z
TLE epoch observation values (Epoch: 2026-05-25T03:11:36.727Z)
Latitude
-0.00003°
Longitude
-93.92686°
Altitude
549.338 km
Speed
7.593 km/s
True Right ascension
13h 06m 48s
True Declination
0° 00' 00"
Sunlit
Object was in full shadow at epoch
Visualization orbit readout
Latitude
Unknown
Longitude
Unknown
Altitude
Unknown
Speed
Unknown
Apparent Right ascension
Unknown
Apparent Declination
Unknown
Sunlit
N/A
Visualization observer readout
Local Sidereal Time
02:01:01
Azimuth
Unknown
Elevation
Unknown
Doppler factor
Unknown
Orbital elements
Apogee altitude
563.307 km
Perigee altitude
543.28 km
Semi-major axis
6,931.431 km
Eccentricity
0.00144
Inclination
97.6128°
RAAN
196.7014°
Arg. of periapsis
0.4985°
True anomaly
359.62412°
Mean anomaly
359.6252°
Eccentric anomaly
359.62466°
Mean motion
3.76105 °/min
Orbital period
95.72 mins
BSTAR
0.0012428
Loading maneuver chart data...
Computing Atmospheric mass density...
Loading historical data...
Loading historical data...
Loading historical data...
Loading historical data...
Loading historical data...
Loading historical data...
Loading historical data...

Documentation

Showing up to 5 results
|